NOAA 16 DEB, 42423

Orbit data source: Space-Track

NOAA 16 DEB, 42423 is space debris in SSO originally from a launch on Thu, 21 Sep 2000 UTC launched from the Air Force Western Test Range (AFWTR). Debris objects in space refer to the collection of defunct objects orbiting the Earth. Examples of debris include non-operational satellites, rocket bodies, and fragments generated from explosions, collisions, or faulty payload assembly.

Loading next visibility...
Identifier
42423, 2000-055TT
Orbit
SSO
Country
Flag of USUS
Related business
Manufacturer
Unknown
Mission
Spacecraft
Bus & Motor
Unknown
Mass
Unknown
Launch date (UTC)
2000-09-21 (25 years ago)
Launch vehicle
Unknown
Launch site
Air Force Western Test Range (AFWTR)
Object type
Payload
Rocket body
Debris
Shape & HBR
Unknown
Radar Cross Section
Small (<0.1 m²)

Expand to show TLE details & history
Last TLE update: 3 days ago

TLE from 3 days ago
0 NOAA 16 DEB
1 42423U 00055TT  25258.40459719  .00448692  00000-0  34957-1 0  9998
2 42423  98.8972  57.7734 0004265 264.6751  95.3982 14.99132731488793
Epoch: 2025-09-15T09:42Z
TLE epoch observation values (Epoch: 2025-09-15T09:42:37.197Z)
Latitude
0.00003°
Longitude
-82.49132°
Altitude
572.87 km
Speed
7.574 km/s
True Right ascension
03h 51m 05s
True Declination
0° 00' 00"
Sunlit
Object was in full shadow at epoch
Visualization orbit readout
Latitude
Unknown
Longitude
Unknown
Altitude
Unknown
Speed
Unknown
Apparent Right ascension
Unknown
Apparent Declination
Unknown
Sunlit
N/A
Visualization observer readout
Local Sidereal Time
14:33:50
Azimuth
Unknown
Elevation
Unknown
Doppler factor
Unknown
Orbital elements
Apogee altitude
569.6 km
Perigee altitude
563.676 km
Semi-major axis
6,944.775 km
Eccentricity
0.00043
Inclination
98.8972°
RAAN
57.7734°
Arg. of periapsis
264.6751°
True anomaly
95.44685°
Mean anomaly
95.3982°
Eccentric anomaly
95.42253°
Mean motion
3.75021 °/min
Orbital period
95.99 mins
BSTAR
0.034957
Loading maneuver chart data...
Computing Atmospheric mass density...
Loading historical data...
Loading historical data...
Loading historical data...
Loading historical data...
Loading historical data...
Loading historical data...
Loading historical data...

Documentation

Showing up to 5 results
|